Date String (YYYY-MM-DD hh:mm:ss) UTC,Instrument flags,absolute air pressure of the measurement (hPa),sample flow rate (lpm),inlet stack bypass flow (lpm),air temperature of the measurement (°C),ambient temperature measured by the external sensor (°C),aerosol sample conditioner tube jacket temperature (°C),OPC LED temperature (°C),internal box temperature (°C),relative humidity of the measurement (%),span deviation,mass concentration of particles derived from Lorenz-Mie calculation of OPC scattering (μg/m³),mass concentration of particles derived from Lorenz-Mie calculation of OPC scattering (μg/m³),mass concentration of particles derived from Lorenz-Mie calculation of OPC scattering (μg/m³)
DateTimeUTC,F1_M11,P_M11,Q1_M11,Q2_M11,T1_M11,T2_M11,T3_M11,T4_M11,T5_M11,U1_M11,ZSPAN_M11,X0_M11,X2_M11,X1_M11
2023-10-12 03:00:00,SystemResetWarning,0815.0,5.00,000.00,029.1,027.8,000.0,037.5,030.8,17.6,0000.0,0001.24,0000.26,0000.16
2023-10-12 03:01:00,SystemResetWarning,0814.9,5.00,000.00,029.1,027.8,000.0,037.5,030.8,17.6,0000.0,0001.24,0000.26,0000.16
2023-10-12 03:02:00,SystemResetWarning,0814.9,5.00,000.00,029.1,027.8,000.0,037.5,030.8,17.7,0000.0,0001.27,0000.27,0000.16
2023-10-12 03:03:00,SystemResetWarning,0814.9,5.00,000.00,029.1,027.8,000.0,037.5,030.8,17.7,0000.0,0001.24,0000.27,0000.16
2023-10-12 03:04:00,SystemResetWarning,0814.9,5.00,000.00,029.1,027.8,000.0,037.5,030.8,17.8,0000.0,0000.80,0000.25,0000.16
2023-10-12 03:05:00,SystemResetWarning,0814.9,5.00,000.00,029.2,027.8,000.0,037.5,030.8,17.8,0000.0,0000.68,0000.23,0000.17
2023-10-12 03:06:00,SystemResetWarning,0815.0,5.00,000.00,029.2,027.8,000.0,037.6,030.8,17.8,0000.0,0000.63,0000.22,0000.17
2023-10-12 03:07:00,SystemResetWarning,0815.0,5.00,000.00,029.2,027.8,000.0,037.6,030.8,18.0,0000.0,0000.42,0000.22,0000.18
2023-10-12 03:08:00,SystemResetWarning,0815.0,5.00,000.00,029.2,027.8,000.0,037.6,030.8,18.1,0000.0,0000.40,0000.23,0000.18
2023-10-12 03:09:00,SystemResetWarning,0815.0,5.00,000.00,029.2,027.8,000.0,037.6,030.8,18.1,0000.0,0000.41,0000.25,0000.18
2023-10-12 03:10:00,SystemResetWarning,0815.0,4.99,000.00,029.2,027.8,000.0,037.6,030.8,18.1,0000.0,0000.51,0000.30,0000.20
2023-10-12 03:11:00,SystemResetWarning,0815.0,5.00,000.00,029.2,027.8,000.0,037.6,030.9,18.2,0000.0,0000.57,0000.32,0000.21
2023-10-12 03:12:00,SystemResetWarning,0815.0,5.00,000.00,029.2,027.8,000.0,037.6,030.9,18.2,0000.0,0000.58,0000.33,0000.22
2023-10-12 03:13:00,SystemResetWarning,0815.0,5.00,000.00,029.2,027.8,000.0,037.6,030.9,18.2,0000.0,0000.61,0000.35,0000.23
2023-10-12 03:14:00,SystemResetWarning,0815.0,5.00,000.00,029.2,027.8,000.0,037.6,030.9,18.1,0000.0,0000.62,0000.36,0000.25
2023-10-12 03:15:00,SystemResetWarning,0815.0,5.00,000.00,029.2,027.8,000.0,037.6,030.9,18.0,0000.0,0000.66,0000.38,0000.25
2023-10-12 03:16:00,SystemResetWarning,0815.0,5.00,000.00,029.2,027.8,000.0,037.6,030.9,17.9,0000.0,0000.72,0000.40,0000.26
2023-10-12 03:17:00,SystemResetWarning,0814.9,5.00,000.00,029.2,027.8,000.0,037.6,030.9,17.7,0000.0,0000.71,0000.40,0000.26
2023-10-12 03:18:00,SystemResetWarning,0814.9,5.00,000.00,029.2,027.9,000.0,037.6,030.9,17.6,0000.0,0000.68,0000.39,0000.26
2023-10-12 03:19:00,SystemResetWarning,0814.9,5.00,000.00,029.3,027.9,000.0,037.6,030.9,17.5,0000.0,0000.68,0000.39,0000.26
2023-10-12 03:20:00,SystemResetWarning,0814.9,5.00,000.00,029.3,027.9,000.0,037.6,030.9,17.4,0000.0,0000.60,0000.38,0000.27
2023-10-12 03:21:00,SystemResetWarning,0814.9,5.00,000.00,029.3,027.9,000.0,037.7,030.9,17.4,0000.0,0000.54,0000.35,0000.27
2023-10-12 03:22:00,SystemResetWarning,0815.0,5.00,000.00,029.3,027.9,000.0,037.7,030.9,17.4,0000.0,0000.54,0000.37,0000.27
2023-10-12 03:23:00,SystemResetWarning,0815.0,5.00,000.00,029.3,027.9,000.0,037.7,030.9,17.3,0000.0,0000.61,0000.41,0000.27
2023-10-12 03:24:00,SystemResetWarning,0814.9,5.00,000.00,029.3,027.9,000.0,037.7,030.9,17.4,0000.0,0000.58,0000.40,0000.28
2023-10-12 03:25:00,SystemResetWarning,0814.9,5.00,000.00,029.3,027.9,000.0,037.7,030.9,17.3,0000.0,0000.60,0000.40,0000.28
2023-10-12 03:26:00,SystemResetWarning,0814.9,4.99,000.00,029.3,027.9,000.0,037.7,030.9,17.2,0000.0,0000.67,0000.40,0000.27
2023-10-12 03:27:00,SystemResetWarning,0814.9,5.00,000.00,029.3,027.9,000.0,037.7,030.9,17.3,0000.0,0000.68,0000.40,0000.27
2023-10-12 03:28:00,SystemResetWarning,0814.9,5.00,000.00,029.3,027.9,000.0,037.7,030.9,17.3,0000.0,0000.68,0000.41,0000.28
2023-10-12 03:29:00,SystemResetWarning,0814.9,5.00,000.00,029.3,027.9,000.0,037.7,030.9,17.3,0000.0,0000.74,0000.44,0000.27
2023-10-12 03:30:00,SystemResetWarning,0814.9,5.00,000.00,029.3,027.9,000.0,037.7,030.9,17.5,0000.0,0000.76,0000.45,0000.28
2023-10-12 03:31:00,SystemResetWarning,0814.9,5.00,000.00,029.3,027.9,000.0,037.7,030.9,18.0,0000.0,0000.86,0000.46,0000.28
2023-10-12 03:32:00,SystemResetWarning,0814.9,5.00,000.00,029.3,027.9,000.0,037.7,030.9,18.4,0000.0,0000.84,0000.45,0000.28
2023-10-12 03:33:00,SystemResetWarning,0814.9,5.00,000.00,029.3,027.8,000.0,037.7,030.8,18.3,0000.0,0000.81,0000.45,0000.28
2023-10-12 03:34:00,SystemResetWarning,0814.9,5.00,000.00,029.3,027.8,000.0,037.7,030.9,17.8,0000.0,0000.78,0000.43,0000.27
2023-10-12 03:35:00,SystemResetWarning,0814.9,5.00,000.00,029.3,027.8,000.0,037.7,030.9,17.9,0000.0,0000.83,0000.45,0000.27
2023-10-12 03:36:00,SystemResetWarning,0814.9,5.00,000.00,029.3,027.9,000.0,037.7,030.9,18.0,0000.0,0000.94,0000.48,0000.26
2023-10-12 03:37:00,SystemResetWarning,0814.9,5.00,000.00,029.3,027.9,000.0,037.7,030.9,17.7,0000.0,0000.89,0000.47,0000.26
2023-10-12 03:38:00,SystemResetWarning,0815.0,5.00,000.00,029.3,027.9,000.0,037.7,030.9,17.7,0000.0,0000.89,0000.46,0000.26
2023-10-12 03:39:00,SystemResetWarning,0814.9,5.00,000.00,029.3,027.9,000.0,037.7,031.0,17.5,0000.0,0000.91,0000.47,0000.25
2023-10-12 03:40:00,SystemResetWarning,0814.9,5.00,000.00,029.3,027.9,000.0,037.8,031.0,17.5,0000.0,0000.92,0000.47,0000.25
2023-10-12 03:41:00,SystemResetWarning,0814.9,5.00,000.00,029.3,027.9,000.0,037.8,031.0,17.3,0000.0,0000.93,0000.48,0000.24
2023-10-12 03:42:00,SystemResetWarning,0814.9,5.00,000.00,029.3,027.9,000.0,037.8,031.0,16.8,0000.0,0000.84,0000.46,0000.24
2023-10-12 03:43:00,SystemResetWarning,0814.8,5.00,000.00,029.3,027.9,000.0,037.8,031.0,16.8,0000.0,0000.81,0000.46,0000.24
2023-10-12 03:44:00,SystemResetWarning,0814.9,5.00,000.00,029.3,028.0,000.0,037.8,031.0,16.8,0000.0,0000.87,0000.47,0000.24
2023-10-12 03:45:00,SystemResetWarning,0814.8,5.00,000.00,029.4,028.0,000.0,037.8,031.0,16.7,0000.0,0000.91,0000.49,0000.25
2023-10-12 03:46:00,SystemResetWarning,0814.9,5.00,000.00,029.4,028.0,000.0,037.8,031.0,16.9,0000.0,0000.91,0000.48,0000.26
2023-10-12 03:47:00,SystemResetWarning,0814.9,5.00,000.00,029.4,028.0,000.0,037.8,031.0,17.2,0000.0,0000.81,0000.46,0000.26
2023-10-12 03:48:00,SystemResetWarning,0814.8,5.00,000.00,029.4,028.0,000.0,037.8,031.0,17.1,0000.0,0000.80,0000.45,0000.26
2023-10-12 03:49:00,SystemResetWarning,0814.8,5.00,000.00,029.4,028.0,000.0,037.8,031.0,17.2,0000.0,0001.60,0000.46,0000.27
2023-10-12 03:50:00,SystemResetWarning,0814.8,5.00,000.00,029.4,028.0,000.0,037.8,031.0,17.2,0000.0,0001.65,0000.48,0000.27
2023-10-12 03:51:00,SystemResetWarning,0814.8,5.00,000.00,029.4,028.0,000.0,037.8,031.0,17.0,0000.0,0001.77,0000.47,0000.28
2023-10-12 03:52:00,SystemResetWarning,0814.8,5.00,000.00,029.4,028.0,000.0,037.8,031.0,17.2,0000.0,0001.78,0000.46,0000.29
2023-10-12 03:53:00,SystemResetWarning,0814.8,5.00,000.00,029.4,028.0,000.0,037.8,031.0,17.3,0000.0,0001.78,0000.47,0000.29
2023-10-12 03:54:00,SystemResetWarning,0814.8,5.00,000.00,029.4,028.0,000.0,037.8,031.0,17.2,0000.0,0001.81,0000.48,0000.30
2023-10-12 03:55:00,SystemResetWarning,0814.8,5.00,000.00,029.4,028.0,000.0,037.8,031.0,17.1,0000.0,0001.86,0000.51,0000.30
2023-10-12 03:56:00,SystemResetWarning,0814.8,5.00,000.00,029.4,028.0,000.0,037.8,031.0,17.3,0000.0,0001.81,0000.49,0000.30
2023-10-12 03:57:00,SystemResetWarning,0814.8,5.00,000.00,029.4,028.0,000.0,037.8,031.0,17.6,0000.0,0001.76,0000.47,0000.31
2023-10-12 03:58:00,SystemResetWarning,0814.8,5.00,000.00,029.4,028.0,000.0,037.8,031.0,17.5,0000.0,0001.75,0000.46,0000.31
2023-10-12 03:59:00,SystemResetWarning,0814.8,5.00,000.00,029.4,028.0,000.0,037.9,031.1,18.0,0000.0,0001.93,0000.46,0000.31
